JST642 YMML-YPAD

Flight info

Callsign JST642
Flight time 1h 1m
Altitude 34000
Route ML H345 AD
Aircraft A320/M-SDE3FGHIRWY/LB1

Departure

Time 2026-05-01 12:33
Airport Melbourne Airport (YMML)

Arrival

Time 2026-05-01 13:35
Airport Adelaide International Airport (YPAD)
Time Latitude Longitude Altitude Speed Heading
2026-05-01 12:00 -37.67119 144.84634 389 ft 0 kts 352°
2026-05-01 12:15 -37.67135 144.84638 388 ft 2 kts 339°
2026-05-01 12:16 -37.67150 144.84647 388 ft 2 kts 308°
2026-05-01 12:16 -37.67157 144.84665 388 ft 2 kts 269°
2026-05-01 12:16 -37.67156 144.84678 389 ft 0 kts 261°
2026-05-01 12:16 -37.67159 144.84693 389 ft 2 kts 314°
2026-05-01 12:17 -37.67169 144.84708 389 ft 2 kts 313°
2026-05-01 12:17 -37.67178 144.84725 389 ft 2 kts 294°
2026-05-01 12:17 -37.67185 144.84743 389 ft 1 kts 268°
2026-05-01 12:17 -37.67185 144.84744 389 ft 0 kts 267°
2026-05-01 12:18 -37.67185 144.84743 389 ft 0 kts 267°
2026-05-01 12:20 -37.67186 144.84735 389 ft 2 kts 267°
2026-05-01 12:20 -37.67188 144.84702 388 ft 3 kts 262°
2026-05-01 12:21 -37.67194 144.84667 388 ft 5 kts 258°
2026-05-01 12:21 -37.67201 144.84610 386 ft 5 kts 261°
2026-05-01 12:21 -37.67205 144.84575 386 ft 2 kts 261°
2026-05-01 12:21 -37.67209 144.84546 385 ft 4 kts 261°
2026-05-01 12:22 -37.67210 144.84499 385 ft 7 kts 278°
2026-05-01 12:22 -37.67199 144.84439 384 ft 6 kts 278°
2026-05-01 12:22 -37.67201 144.84381 384 ft 6 kts 264°
2026-05-01 12:22 -37.67206 144.84322 382 ft 8 kts 263°
2026-05-01 12:23 -37.67213 144.84240 381 ft 9 kts 264°
2026-05-01 12:23 -37.67221 144.84150 379 ft 11 kts 264°
2026-05-01 12:23 -37.67262 144.84079 377 ft 7 kts 201°
2026-05-01 12:23 -37.67322 144.84082 376 ft 8 kts 171°
2026-05-01 12:24 -37.67378 144.84094 374 ft 8 kts 171°
2026-05-01 12:24 -37.67442 144.84105 373 ft 8 kts 172°
2026-05-01 12:24 -37.67509 144.84117 370 ft 11 kts 172°
2026-05-01 12:24 -37.67576 144.84130 370 ft 9 kts 171°
2026-05-01 12:25 -37.67649 144.84144 368 ft 12 kts 172°
2026-05-01 12:25 -37.67789 144.84170 362 ft 10 kts 171°
2026-05-01 12:25 -37.67858 144.84153 359 ft 13 kts 221°
2026-05-01 12:26 -37.67873 144.84113 363 ft 0 kts 260°
2026-05-01 12:32 -37.67875 144.84092 357 ft 5 kts 265°
2026-05-01 12:32 -37.67786 144.83953 360 ft 15 kts 348°
2026-05-01 12:32 -37.67568 144.83909 365 ft 63 kts 352°
2026-05-01 12:33 -37.66932 144.83791 389 ft 118 kts 352°
2026-05-01 12:33 -37.65993 144.83624 432 ft 155 kts 353°
2026-05-01 12:33 -37.64914 144.83429 996 ft 154 kts 353°
2026-05-01 12:33 -37.63847 144.83228 1587 ft 160 kts 355°
2026-05-01 12:34 -37.62670 144.83012 1875 ft 184 kts 355°
2026-05-01 12:34 -37.61319 144.82765 2255 ft 208 kts 355°
2026-05-01 12:34 -37.59802 144.82489 2693 ft 231 kts 355°
2026-05-01 12:34 -37.58183 144.82185 3526 ft 237 kts 354°
2026-05-01 12:35 -37.56628 144.81457 4486 ft 246 kts 327°
2026-05-01 12:35 -37.55631 144.79692 5387 ft 261 kts 296°
2026-05-01 12:35 -37.55044 144.77503 6367 ft 264 kts 292°
2026-05-01 12:35 -37.54544 144.75257 7287 ft 267 kts 289°
2026-05-01 12:36 -37.54064 144.72979 8143 ft 270 kts 289°
2026-05-01 12:36 -37.53577 144.70672 8997 ft 273 kts 289°
2026-05-01 12:36 -37.53077 144.68363 9822 ft 277 kts 289°
2026-05-01 12:36 -37.52551 144.65984 10389 ft 290 kts 289°
2026-05-01 12:37 -37.51973 144.63438 10611 ft 312 kts 289°
2026-05-01 12:37 -37.51364 144.60791 11134 ft 321 kts 289°
2026-05-01 12:37 -37.50732 144.58052 11795 ft 327 kts 289°
2026-05-01 12:37 -37.50096 144.55307 12459 ft 332 kts 289°
2026-05-01 12:38 -37.49437 144.52463 13129 ft 337 kts 289°
2026-05-01 12:38 -37.48785 144.49642 13776 ft 342 kts 289°
2026-05-01 12:38 -37.48112 144.46737 14394 ft 346 kts 289°
2026-05-01 12:38 -37.47434 144.43813 15022 ft 349 kts 289°
2026-05-01 12:39 -37.46753 144.40885 15644 ft 352 kts 289°
2026-05-01 12:39 -37.46064 144.37927 16273 ft 354 kts 289°
2026-05-01 12:39 -37.45365 144.34938 16894 ft 357 kts 289°
2026-05-01 12:39 -37.44661 144.31925 17490 ft 360 kts 289°
2026-05-01 12:40 -37.43954 144.28893 18127 ft 362 kts 289°
2026-05-01 12:40 -37.43243 144.25832 18721 ft 365 kts 289°
2026-05-01 12:40 -37.42522 144.22747 19279 ft 368 kts 289°
2026-05-01 12:40 -37.41805 144.19691 19861 ft 370 kts 289°
2026-05-01 12:41 -37.41075 144.16580 20468 ft 372 kts 290°
2026-05-01 12:41 -37.40338 144.13450 21071 ft 374 kts 290°
2026-05-01 12:41 -37.39599 144.10311 21646 ft 376 kts 290°
2026-05-01 12:41 -37.38853 144.07151 22217 ft 378 kts 290°
2026-05-01 12:42 -37.38103 144.03973 22775 ft 380 kts 290°
2026-05-01 12:42 -37.37345 144.00779 23339 ft 382 kts 290°
2026-05-01 12:42 -37.36584 143.97560 23865 ft 385 kts 290°
2026-05-01 12:42 -37.35818 143.94331 24312 ft 387 kts 290°
2026-05-01 12:43 -37.35307 143.92176 24602 ft 388 kts 289°
2026-05-01 12:43 -37.34282 143.87845 25169 ft 391 kts 289°
2026-05-01 12:43 -37.33500 143.84540 25593 ft 394 kts 289°
2026-05-01 12:43 -37.32713 143.81236 26005 ft 396 kts 289°
2026-05-01 12:44 -37.31915 143.77909 26409 ft 398 kts 289°
2026-05-01 12:44 -37.31383 143.75692 26677 ft 400 kts 289°
2026-05-01 12:44 -37.29768 143.68956 27451 ft 404 kts 289°
2026-05-01 12:45 -37.28135 143.62143 28201 ft 409 kts 289°
2026-05-01 12:45 -37.27320 143.58751 28567 ft 412 kts 289°
2026-05-01 12:45 -37.26489 143.55287 28940 ft 414 kts 289°
2026-05-01 12:46 -37.25654 143.51821 29311 ft 417 kts 289°
2026-05-01 12:46 -37.24809 143.48332 29668 ft 419 kts 289°
2026-05-01 12:46 -37.23959 143.44824 30025 ft 421 kts 289°
2026-05-01 12:46 -37.23101 143.41280 30353 ft 424 kts 289°
2026-05-01 12:47 -37.22240 143.37726 30670 ft 426 kts 289°
2026-05-01 12:47 -37.21375 143.34167 30977 ft 427 kts 289°
2026-05-01 12:47 -37.20504 143.30599 31341 ft 427 kts 289°
2026-05-01 12:47 -37.19641 143.27090 31799 ft 425 kts 290°
2026-05-01 12:48 -37.18688 143.23573 32269 ft 422 kts 292°
2026-05-01 12:48 -37.17661 143.20128 32741 ft 419 kts 293°
2026-05-01 12:48 -37.16609 143.16775 33211 ft 417 kts 294°
2026-05-01 12:48 -37.15535 143.13403 33688 ft 415 kts 294°
2026-05-01 12:49 -37.14467 143.10037 34086 ft 414 kts 294°
2026-05-01 12:49 -37.13418 143.06691 34166 ft 410 kts 293°
2026-05-01 12:49 -37.11371 143.00048 34165 ft 406 kts 293°
2026-05-01 12:50 -37.09372 142.93490 34166 ft 405 kts 293°
2026-05-01 12:50 -37.07346 142.86893 34162 ft 405 kts 293°
2026-05-01 12:51 -37.05315 142.80316 34161 ft 404 kts 293°
2026-05-01 12:52 -37.02265 142.70486 34170 ft 405 kts 293°
2026-05-01 12:52 -36.99212 142.60665 34171 ft 405 kts 293°
2026-05-01 12:53 -36.96143 142.50810 34172 ft 405 kts 293°
2026-05-01 12:54 -36.94096 142.44249 34168 ft 405 kts 293°
2026-05-01 12:54 -36.91018 142.34431 34172 ft 405 kts 294°
2026-05-01 12:55 -36.87938 142.24646 34166 ft 405 kts 294°
2026-05-01 12:56 -36.85868 142.18094 34162 ft 404 kts 294°
2026-05-01 12:56 -36.83802 142.11559 34164 ft 404 kts 294°
2026-05-01 12:57 -36.81742 142.05067 34156 ft 404 kts 294°
2026-05-01 12:57 -36.78638 141.95272 34151 ft 404 kts 294°
2026-05-01 12:58 -36.76583 141.88805 34147 ft 403 kts 294°
2026-05-01 12:59 -36.73459 141.79048 34137 ft 403 kts 294°
2026-05-01 12:59 -36.70337 141.69316 34136 ft 403 kts 294°
2026-05-01 13:00 -36.67207 141.59615 34132 ft 402 kts 294°
2026-05-01 13:01 -36.64085 141.49957 34128 ft 402 kts 294°
2026-05-01 13:02 -36.60957 141.40273 34121 ft 401 kts 294°
2026-05-01 13:07 -36.38432 140.72841 32973 ft 405 kts 309°
2026-05-01 13:07 -36.36721 140.70107 32434 ft 406 kts 309°
2026-05-01 13:07 -36.34973 140.67341 31901 ft 407 kts 310°
2026-05-01 13:08 -36.33221 140.64576 31374 ft 408 kts 310°
2026-05-01 13:08 -36.31463 140.61809 30862 ft 408 kts 310°
2026-05-01 13:08 -36.29698 140.59038 30355 ft 409 kts 310°
2026-05-01 13:08 -36.27933 140.56265 29807 ft 410 kts 310°
2026-05-01 13:09 -36.26160 140.53477 29227 ft 412 kts 310°
2026-05-01 13:09 -36.24384 140.50684 28658 ft 414 kts 310°
2026-05-01 13:09 -36.22594 140.47868 28103 ft 417 kts 310°
2026-05-01 13:09 -36.20795 140.45038 27556 ft 419 kts 310°
2026-05-01 13:10 -36.19011 140.42237 27028 ft 421 kts 310°
2026-05-01 13:10 -36.17190 140.39378 26502 ft 423 kts 310°
2026-05-01 13:10 -36.15361 140.36508 25986 ft 425 kts 310°
2026-05-01 13:10 -36.13523 140.33627 25479 ft 427 kts 310°
2026-05-01 13:11 -36.11678 140.30744 24964 ft 427 kts 310°
2026-05-01 13:11 -36.09828 140.27851 24408 ft 430 kts 310°
2026-05-01 13:11 -36.08047 140.24860 23855 ft 434 kts 302°
2026-05-01 13:11 -36.06729 140.21468 23257 ft 438 kts 297°
2026-05-01 13:12 -36.05482 140.18026 22617 ft 441 kts 297°
2026-05-01 13:12 -36.04255 140.14592 21998 ft 443 kts 297°
2026-05-01 13:12 -36.03013 140.11095 21384 ft 445 kts 297°
2026-05-01 13:12 -36.01764 140.07585 20773 ft 444 kts 297°
2026-05-01 13:13 -36.00517 140.04101 20192 ft 442 kts 297°
2026-05-01 13:13 -35.99271 140.00635 19613 ft 438 kts 297°
2026-05-01 13:13 -35.98032 139.97214 19159 ft 437 kts 297°
2026-05-01 13:13 -35.96786 139.93794 18990 ft 435 kts 297°
2026-05-01 13:14 -35.95561 139.90424 19025 ft 436 kts 297°
2026-05-01 13:14 -35.94316 139.87001 19023 ft 436 kts 297°
2026-05-01 13:14 -35.93076 139.83593 19024 ft 435 kts 297°
2026-05-01 13:14 -35.91854 139.80232 19018 ft 426 kts 297°
2026-05-01 13:15 -35.90643 139.76904 19022 ft 424 kts 297°
2026-05-01 13:15 -35.89436 139.73586 19019 ft 423 kts 297°
2026-05-01 13:15 -35.88228 139.70275 19017 ft 424 kts 297°
2026-05-01 13:15 -35.87002 139.66924 19017 ft 432 kts 297°
2026-05-01 13:16 -35.85757 139.63526 19016 ft 435 kts 297°
2026-05-01 13:16 -35.84523 139.60158 19016 ft 436 kts 297°
2026-05-01 13:16 -35.83276 139.56747 19012 ft 436 kts 297°
2026-05-01 13:17 -35.79519 139.46500 19005 ft 436 kts 298°
2026-05-01 13:17 -35.78266 139.43093 19006 ft 436 kts 298°
2026-05-01 13:18 -35.75766 139.36324 19002 ft 436 kts 298°
2026-05-01 13:18 -35.74508 139.32915 18996 ft 436 kts 298°
2026-05-01 13:18 -35.73257 139.29521 18996 ft 436 kts 298°
2026-05-01 13:18 -35.72001 139.26124 18999 ft 436 kts 298°
2026-05-01 13:19 -35.70742 139.22724 18992 ft 435 kts 298°
2026-05-01 13:19 -35.69482 139.19325 18964 ft 435 kts 298°
2026-05-01 13:19 -35.66984 139.12608 18500 ft 431 kts 298°
2026-05-01 13:20 -35.65729 139.09258 18249 ft 429 kts 300°
2026-05-01 13:20 -35.64117 139.06218 17999 ft 421 kts 314°
2026-05-01 13:20 -35.62108 139.03616 17754 ft 418 kts 316°
2026-05-01 13:21 -35.58070 138.98535 17224 ft 416 kts 316°
2026-05-01 13:21 -35.56048 138.95999 16954 ft 414 kts 316°
2026-05-01 13:21 -35.54032 138.93467 16717 ft 413 kts 316°
2026-05-01 13:21 -35.52079 138.91003 16368 ft 386 kts 316°
2026-05-01 13:22 -35.50301 138.88750 15984 ft 359 kts 316°
2026-05-01 13:22 -35.48615 138.86615 15589 ft 336 kts 316°
2026-05-01 13:22 -35.47018 138.84606 15197 ft 324 kts 316°
2026-05-01 13:22 -35.45445 138.82636 14820 ft 321 kts 316°
2026-05-01 13:23 -35.43882 138.80683 14393 ft 320 kts 316°
2026-05-01 13:23 -35.42323 138.78734 13972 ft 319 kts 316°
2026-05-01 13:23 -35.40792 138.76817 13525 ft 318 kts 316°
2026-05-01 13:23 -35.39246 138.74879 13026 ft 316 kts 316°
2026-05-01 13:24 -35.37714 138.72960 12522 ft 314 kts 316°
2026-05-01 13:24 -35.36205 138.71070 12007 ft 303 kts 316°
2026-05-01 13:24 -35.34761 138.69263 11504 ft 291 kts 316°
2026-05-01 13:25 -35.32023 138.65835 10517 ft 272 kts 317°
2026-05-01 13:25 -35.30727 138.64212 9997 ft 267 kts 316°
2026-05-01 13:25 -35.29428 138.62591 9357 ft 266 kts 317°
2026-05-01 13:25 -35.28134 138.60978 8713 ft 264 kts 317°
2026-05-01 13:26 -35.26848 138.59379 8094 ft 262 kts 317°
2026-05-01 13:26 -35.25575 138.57794 7532 ft 259 kts 317°
2026-05-01 13:26 -35.24322 138.56235 6996 ft 256 kts 317°
2026-05-01 13:26 -35.23082 138.54702 6508 ft 250 kts 319°
2026-05-01 13:27 -35.21862 138.53315 6382 ft 235 kts 321°
2026-05-01 13:27 -35.20641 138.51998 6156 ft 232 kts 322°
2026-05-01 13:27 -35.18227 138.49441 5495 ft 225 kts 322°
2026-05-01 13:28 -35.15947 138.47012 4789 ft 211 kts 323°
2026-05-01 13:28 -35.14856 138.45848 4408 ft 205 kts 324°
2026-05-01 13:29 -35.13101 138.43972 3735 ft 198 kts 324°
2026-05-01 13:29 -35.10751 138.41456 3001 ft 180 kts 325°
2026-05-01 13:30 -35.07426 138.37921 2999 ft 170 kts 331°
2026-05-01 13:31 -35.05293 138.37976 3003 ft 168 kts 33°
2026-05-01 13:31 -35.02983 138.41341 2756 ft 172 kts 43°
2026-05-01 13:32 -35.01509 138.43515 2077 ft 161 kts 43°
2026-05-01 13:33 -34.99527 138.46387 1259 ft 131 kts 41°
2026-05-01 13:33 -34.98365 138.48100 815 ft 128 kts 46°
2026-05-01 13:34 -34.97182 138.49761 505 ft 131 kts 47°
2026-05-01 13:34 -34.96038 138.51452 160 ft 129 kts 47°
2026-05-01 13:35 -34.95099 138.52814 21 ft 58 kts 49°
2026-05-01 13:35 -34.94962 138.52992 24 ft 20 kts 19°
2026-05-01 13:35 -34.94924 138.52989 21 ft 0 kts 348°
2026-05-01 13:36 -34.94919 138.52988 21 ft 3 kts 348°
2026-05-01 13:36 -34.94882 138.52990 22 ft 9 kts 14°
2026-05-01 13:36 -34.94702 138.53069 22 ft 17 kts 20°
2026-05-01 13:37 -34.94596 138.53117 23 ft 17 kts 20°
2026-05-01 13:37 -34.94549 138.53138 22 ft 0 kts 20°
2026-05-01 13:37 -34.94544 138.53140 22 ft 3 kts 21°
2026-05-01 13:38 -34.94511 138.53231 25 ft 10 kts 106°
2026-05-01 13:38 -34.94512 138.53327 23 ft 14 kts 69°
2026-05-01 13:38 -34.94445 138.53430 24 ft 17 kts 50°
2026-05-01 13:39 -34.94365 138.53546 23 ft 18 kts 50°
2026-05-01 13:39 -34.94292 138.53647 24 ft 15 kts 36°
2026-05-01 13:39 -34.94200 138.53639 25 ft 11 kts
2026-05-01 13:39 -34.94135 138.53676 26 ft 11 kts 337°
2026-05-01 13:40 -34.94095 138.53638 27 ft 7 kts 319°
2026-05-01 13:40 -34.94080 138.53623 27 ft 0 kts 321°